Main page
METAR-TAF:

METAR-TAF

Airports :

Boulmer, England

RAF Boulmer

latitude: 55-25-19N, longitude: 1-36-12W, elevation: 24 m

Current weather observation

The report was made 26 minutes ago, at 01:50 UTC
Wind 7 kt from the West/Southwest
Temperature 0°C
Humidity 80%
Pressure 1020 hPa
Visibility 10 km or more

METAR: EGQM 170150Z AUTO 25007KT 9999 FEW210/// M00/M03 Q1020

Time: 02:16 (02:16 UTC)


TAF: missing

Weather observations and forecasts of more than 4000 airports (METAR and TAF reports).

The available stations are represented by yellow and red dots on the map.

Hover mouse over dot to see the name of the station.

Then click to see weather observations and forecasts.

To change the map : click on the green buttons with a black cross to zoom in, on the green button with a dash to zoom out, or on the green arrows for adjacent maps.


METAR-TAF: